METAR LSZS 240650Z VRB03KT 9999 FEW060 M01/M04 Q1025 RMK C=
Diese Daten sind ohne Gewähr und dürfen nicht für die Flugvorbereitung verwendet werden.
Information contained in this website shall not be used for flight operation purposes.